Flag for Kazakhstan Weather past 2 weeks in Shymkent, Kazakhstan

46 °F

Mostly cloudy.

Feels Like: 45 °F
Forecast: 31 / 53 °F
Wind: 3 mph from Northeast

Location: Shymkent Airport

Current Time: Nov 25, 2015 at 4:40:59 PM

Latest Report: Nov 25, 2015 at 4:00 PM

Visibility: 4 mi

Pressure: 30.39 "Hg (28.58 "Hg at 506m altitude)

Humidity: 66%

Dew point: 36 °F

Location of ShymkentLocation

Historic Weather in Shymkent — Graph


Shymkent temperature yesterday

Maximum temperature yesterday: 45 °F (at 1:30 PM)
Minimum temperature yesterday: 41 °F (at 12:00 AM)
Average temperature yesterday: 43 °F

Past Weeks' High & Low Weather Summary

High61 °F (Nov 12, 2:00 PM)100% (Nov 11, 3:00 AM)30.48 "Hg (Nov 11, 3:00 AM)
Low34 °F (Nov 16, 12:00 AM)35% (Nov 16, 2:30 PM)29.62 "Hg (Nov 12, 5:00 AM)
Average44 °F82%30.14 "Hg
* Reported Nov 10 3:00 PM — Nov 25 3:30 PM, Shymkent, Weather by CustomWeather, © 2015

Note: Actual official high and low records may vary slightly from our data, if they occured in-between our weather recording intervals... More about our weather records


Shymkent weather history for previous 24 hours

Time TempWeatherWind HumidityBarometerVisibility
3:30 PM
Wed, Nov 25
46 °FMostly cloudy.3 mph66%30.39 "Hg5 mi
3:00 PM46 °FOvercast.3 mph66%30.39 "Hg5 mi
2:30 PM46 °FOvercast.1 mph62%30.42 "Hg5 mi
2:00 PM46 °FOvercast.3 mph66%30.42 "Hg4 mi
1:30 PM46 °FOvercast.No wind62%30.42 "Hg4 mi
1:00 PM45 °FOvercast.1 mph71%30.42 "Hg4 mi
12:30 PM45 °FOvercast.6 mph71%30.45 "Hg4 mi
12:00 PM45 °FOvercast.6 mph66%30.45 "Hg4 mi
11:30 AM45 °FOvercast.6 mph66%30.45 "Hg4 mi
11:00 AM43 °FFog.6 mph71%30.45 "Hg3 mi
10:00 AM43 °FFog.3 mph76%30.45 "Hg2 mi
9:30 AM43 °FFog.1 mph81%30.45 "Hg2 mi
9:00 AM43 °FFog.3 mph81%30.45 "Hg3 mi
8:30 AM41 °FFog.1 mph93%30.45 "Hg3 mi
8:00 AM41 °FFog.No wind100%30.45 "Hg2 mi
7:30 AM41 °FFog.No wind100%30.45 "Hg2 mi
7:00 AM41 °FFog.1 mph100%30.45 "Hg2 mi
6:30 AM41 °FFog.1 mph93%30.45 "Hg2 mi
5:30 AM41 °FFog.No wind87%30.45 "Hg2 mi
5:00 AM41 °FFog.No wind87%30.45 "Hg2 mi
4:30 AM43 °FFog.1 mph81%30.45 "Hg2 mi
4:00 AM43 °FFog.3 mph81%30.45 "Hg2 mi
3:30 AM43 °FFog.1 mph76%30.45 "Hg2 mi
3:00 AM43 °FFog.1 mph76%30.45 "Hg2 mi
2:30 AM43 °FFog.No wind76%30.45 "Hg2 mi
2:00 AM43 °FFog.No wind76%30.45 "Hg2 mi
1:30 AM43 °FFog.1 mph76%30.45 "Hg2 mi
1:00 AM43 °FFog.1 mph76%30.45 "Hg2 mi
12:30 AM43 °FFog.1 mph76%30.48 "Hg2 mi
12:00 AM43 °FFog.No wind76%30.48 "Hg2 mi
11:30 PM
Tue, Nov 24
43 °FFog.No wind76%30.48 "Hg2 mi
11:00 PM43 °FFog.1 mph76%30.48 "Hg2 mi
10:30 PM45 °FFog.1 mph66%30.48 "Hg2 mi
10:00 PM43 °FFog.1 mph76%30.48 "Hg2 mi
9:30 PM45 °FFog.No wind66%30.48 "Hg2 mi
9:00 PM45 °FFog.3 mph71%30.48 "Hg2 mi
8:30 PM45 °FFog.3 mph71%30.48 "Hg2 mi
8:00 PM43 °FFog.3 mph76%30.48 "Hg2 mi
7:30 PM45 °FFog.3 mph71%30.48 "Hg2 mi
7:00 PM45 °FFog.3 mph71%30.48 "Hg2 mi
6:30 PM43 °FFog.No wind76%30.48 "Hg3 mi
6:00 PM45 °FFog.3 mph71%30.45 "Hg3 mi
5:30 PM45 °FFog.3 mph76%30.45 "Hg3 mi
5:00 PM45 °FFog.6 mph71%30.45 "Hg3 mi
4:30 PM45 °FFog.3 mph71%30.45 "Hg3 mi
4:00 PM45 °FOvercast.3 mph71%30.45 "Hg4 mi
Weather by CustomWeather, © 2015

See weather overviewHow to use our weather pages